CAPE
0 0 0 0 0 0 0 0 0 0 3 1 2 6 12 8 9 14 22 19 40 52 54 48 44 6 1
0 0 0 0 0 0 0 0 0 0 0 0 0 0 0 0 0 0 0 10 8 33 47 53 25 17 4
0 0 0 0 0 0 0 0 0 0 0 1 1 0 0 0 0 0 0 0 5 24 19 23 40 52 20
0 0 0 0 0 0 0 0 0 0 0 0 0 0 0 0 0 0 0 0 1 2 3 20 23 25 1
0 0 0 0 0 0 0 0 0 0 0 0 0 0 0 0 0 0 0 0 0 0 0 20 20 6 0
0 0 0 0 0 0 0 0 0 0 0 0 0 0 0 0 0 0 0 0 0 1 1 8 10 2 0
0 0 0 0 0 0 0 0 0 0 0 0 0 0 0 0 0 0 0 0 0 1 0 0 0 0 0
0 0 0 0 0 0 0 0 0 0 0 0 0 0 0 0 0 0 0 0 0 0 0 0 0 0 0
0 0 0 0 0 0 0 0 0 0 0 0 0 0 0 0 0 0 0 0 0 0 0 0 0 0 1
0 0 0 0 0 0 0 0 0 0 0 0 0 0 0 0 0 0 0 0 0 0 0 0 1 1 0
0 1 0 0 0 0 0 0 0 0 0 0 0 0 0 0 0 0 0 0 0 0 1 1 1 0 0
0 0 0 0 0 0 0 0 0 0 0 0 0 0 0 0 0 0 0 0 0 0 0 0 3 0 0
0 0 0 0 0 0 1 1 0 0 0 0 0 0 0 0 0 0 0 0 0 0 0 0 0 0 0
0 0 0 0 0 0 1 1 1 1 2 2 0 0 0 0 0 0 0 0 0 0 0 0 0 0 0
0 0 1 1 1 2 0 2 0 0 1 2 1 0 0 0 0 0 0 0 0 0 0 0 0 0 0
0 1 0 0 2 2 1 1 0 1 1 4 1 1 1 0 0 0 0 0 0 0 0 0 0 0 0
1 5 5 3 2 2 1 1 0 1 1 1 1 1 0 0 0 0 0 0 0 0 0 0 0 0 0
CIN
-0 -0 -0 -0 -0 -0 -0 -0 -0 -4 -19 -6 -6 -17 -23 -25 -25 -22 -11 -16 -8 -5 -2 -0 -0 -10 -0
-0 -0 -0 -0 -0 -0 -0 -0 -0 -0 -0 -0 -0 -0 -0 -0 -0 -0 -1 -20 -13 -6 -11 -3 -0 -1 -0
-0 -0 -0 -0 -0 -0 -0 -0 -0 -0 -0 -109 -92 -0 -0 -0 -0 -0 -0 -0 -17 -16 -10 -11 -0 -0 -3
-0 -0 -0 -0 -0 -0 -0 -0 -0 -0 -0 -4 -0 -0 -0 -0 -0 -0 -0 -0 -34 -26 -19 -16 -11 -8 -6
-0 -0 -0 -0 -0 -0 -0 -0 -0 -0 -0 -0 -0 -0 -0 -0 -0 -0 -0 -0 -0 -0 -0 -31 -21 -24 -19
-0 -0 -0 -0 -0 -0 -0 -0 -0 -0 -0 -0 -0 -0 -0 -0 -0 -0 -0 -0 -0 -1 -0 -46 -38 -32 -0
-0 -0 -0 -0 -0 -0 -0 -0 -0 -0 -0 -0 -0 -0 -0 -0 -0 -0 -0 -0 -0 -0 -0 -7 -2 -0 -0
-0 -0 -0 -0 -0 -0 -0 -0 -0 -0 -0 -0 -0 -0 -0 -0 -0 -0 -0 -0 -0 -0 -0 -0 -0 -0 -0
-0 -0 -0 -0 -0 -0 -0 -0 -0 -0 -0 -0 -0 -0 -0 -0 -0 -0 -0 -0 -0 -0 -0 -0 -0 -0 -0
-0 -0 -0 -0 -0 -0 -0 -0 -0 -0 -0 -0 -0 -0 -0 -0 -0 -0 -0 -0 -0 -0 -0 -0 -0 -0 -0
-0 -0 -0 -0 -0 -0 -0 -0 -0 -0 -0 -0 -0 -0 -0 -0 -0 -0 -0 -0 -0 -0 -0 -0 -0 -0 -0
-0 -0 -0 -0 -0 -0 -0 -0 -0 -0 -0 -0 -0 -0 -0 -0 -0 -0 -0 -0 -0 -0 -0 -0 -0 -0 -0
-0 -0 -0 -0 -0 -0 -0 -0 -0 -0 -0 -0 -0 -0 -0 -0 -0 -0 -0 -0 -0 -0 -0 -0 -0 -0 -0
-0 -0 -0 -0 -0 -0 -0 -0 -0 -0 -0 -0 -0 -0 -0 -0 -0 -0 -0 -0 -0 -0 -0 -0 -0 -0 -0
-0 -0 -0 -0 -0 -0 -0 -0 -0 -0 -0 -0 -0 -0 -0 -0 -0 -0 -0 -0 -0 -0 -0 -0 -0 -0 -0
-0 -0 -0 -0 -0 -0 -0 -0 -0 -0 -0 -0 -0 -0 -0 -0 -0 -0 -0 -0 -0 -0 -0 -0 -0 -0 -0
-0 -0 -0 -0 -0 -0 -0 -0 -0 -0 -0 -0 -0 -0 -0 -0 -0 -0 -0 -0 -0 -0 -0 -0 -0 -0 -0
Wind_Speed
22 18 15 14 15 15 15 15 16 15 15 15 15 14 15 16 16 16 16 16 15 15 15 14 13 11 11
21 19 18 16 15 14 14 13 14 14 14 14 14 14 14 15 16 16 16 17 17 17 16 16 16 15 13
22 21 19 19 17 17 15 15 16 16 16 15 15 15 16 16 16 16 17 17 17 17 17 16 15 16 15
23 22 22 21 19 18 19 19 19 19 18 18 18 18 18 17 17 17 17 17 18 18 17 16 16 14 14
24 23 23 23 21 22 21 22 22 21 21 20 20 20 21 20 20 19 19 20 20 19 18 17 15 14 13
25 25 24 23 23 22 23 24 28 23 23 24 22 24 23 22 21 20 21 22 21 19 17 17 14 13 13
27 26 26 23 24 24 23 24 25 24 22 26 24 24 25 23 22 22 21 21 21 20 18 15 14 14 13
29 29 27 24 23 22 22 23 26 26 23 27 25 25 24 21 21 22 22 21 21 19 18 16 14 13 12
28 27 25 22 21 21 25 26 28 26 22 25 25 26 24 22 20 22 24 24 22 21 18 15 13 12 12
29 28 27 25 22 23 24 27 28 29 24 23 23 21 24 23 23 23 23 23 22 19 16 14 11 11 12
28 28 27 26 26 26 25 26 27 28 24 20 22 20 22 24 22 22 21 20 20 19 14 11 10 11 11
29 29 29 29 28 26 25 25 25 26 20 17 21 18 21 23 25 22 20 20 20 19 17 13 12 11 12
31 30 28 29 26 24 23 22 22 23 21 20 20 20 21 24 24 23 23 22 19 18 17 14 13 13 15
31 30 27 25 24 23 24 22 23 22 21 21 21 20 23 23 22 23 21 21 19 18 18 19 18 18 18
28 27 27 25 24 21 21 20 22 21 21 21 20 21 21 21 23 21 21 21 21 20 20 21 21 21 21
27 24 22 23 22 21 20 20 21 21 19 19 18 18 20 20 20 22 22 22 21 20 22 24 25 23 22
23 23 21 19 19 19 19 18 18 17 17 17 18 20 22 23 21 19 22 23 22 23 23 23 26 25 25
Wind_Direction
277 275 273 265 271 275 280 275 276 267 269 271 275 273 277 277 279 284 288 291 282 274 269 266 264 272 290
269 269 273 272 273 273 278 280 281 283 279 280 284 287 288 284 281 282 283 286 286 289 285 271 264 261 275
268 272 271 278 277 283 280 281 284 285 287 286 288 294 296 295 295 294 292 290 287 286 287 289 283 272 271
269 271 273 277 277 277 278 283 282 287 288 291 292 296 297 296 291 294 296 297 295 294 287 285 287 286 278
266 269 272 275 272 281 280 284 286 286 289 288 291 297 300 298 298 297 298 300 300 299 293 290 284 278 278
261 266 269 274 277 278 280 283 288 289 287 290 290 293 295 299 298 298 301 302 301 299 295 292 283 279 277
259 263 272 273 277 279 279 281 285 293 295 294 296 294 299 299 299 300 301 302 302 301 297 291 285 283 280
262 267 272 277 274 282 279 285 293 294 294 292 298 296 302 303 304 306 306 304 305 302 297 292 287 284 281
263 265 270 272 276 280 282 286 289 291 290 292 296 297 300 301 303 306 309 309 306 304 300 292 284 281 286
263 267 271 273 270 274 281 283 288 292 292 286 293 297 299 302 305 306 307 309 310 308 302 294 287 291 292
264 267 269 271 272 276 278 280 284 287 297 288 292 291 295 306 309 312 311 310 312 313 307 297 287 288 291
265 268 270 271 275 275 277 281 285 287 288 284 295 291 295 300 303 310 310 310 311 310 310 300 290 283 286
266 270 270 276 277 277 282 283 285 290 289 286 289 291 293 297 300 302 306 309 306 308 311 310 304 301 299
268 272 274 273 273 274 275 274 282 283 293 293 292 292 293 295 296 299 303 306 309 306 306 305 304 304 300
269 268 271 272 272 271 273 272 278 279 284 293 297 298 299 296 296 298 300 300 305 306 306 304 303 303 302
266 264 263 266 268 269 273 273 276 280 281 289 294 299 301 302 302 300 301 301 304 305 305 304 304 305 304
264 266 264 262 267 268 273 274 277 280 285 289 291 294 294 294 304 307 303 304 305 304 303 302 304 309 311